• Em Portugal
  • Lista de países
  • Para 7 dias
  • Temperatura da água
  • Mapas de satélite
  • Mapa do tempo
  • Widgets de tempo
  • user-avatar
    Iniciar Sessão

    Previsão horária em Artemino

    Hoje, 16 Julho, Segunda-feira

    Tempo Temperatura Precipitação Vento Pressão Humidade
    00:00 +19°C° 0 mm 1 m/s 745 mmHg 95%
    01:00 +18°C° 0 mm 2 m/s 745 mmHg 96%
    02:00 +19°C° 0 mm 1 m/s 745 mmHg 97%
    03:00 +19°C° 0,2 mm 1 m/s 745 mmHg 97%
    04:00 +18°C° 0,2 mm 2 m/s 745 mmHg 97%
    05:00 +18°C° 0,2 mm 2 m/s 745 mmHg 97%
    06:00 +19°C° 0 mm 2 m/s 745 mmHg 93%
    07:00 +21°C° 0 mm 2 m/s 746 mmHg 89%
    08:00 +24°C° 0 mm 2 m/s 746 mmHg 83%
    09:00 +25°C° 0,4 mm 3 m/s 746 mmHg 76%
    10:00 +26°C° 0,4 mm 3 m/s 745 mmHg 69%
    11:00 +27°C° 0,4 mm 4 m/s 745 mmHg 62%
    12:00 +28°C° 0 mm 4 m/s 745 mmHg 60%
    13:00 +29°C° 0 mm 4 m/s 745 mmHg 56%
    14:00 +30°C° 0 mm 4 m/s 745 mmHg 55%
    15:00 +29°C° 0,2 mm 3 m/s 745 mmHg 58%
    16:00 +29°C° 0,2 mm 3 m/s 745 mmHg 61%
    17:00 +28°C° 0,2 mm 3 m/s 745 mmHg 64%
    18:00 +26°C° 0,1 mm 3 m/s 745 mmHg 70%
    19:00 +25°C° 0,1 mm 2 m/s 745 mmHg 76%
    20:00 +23°C° 0,1 mm 2 m/s 744 mmHg 82%
    21:00 +23°C° 0,1 mm 2 m/s 745 mmHg 83%
    22:00 +21°C° 0,1 mm 2 m/s 745 mmHg 85%
    23:00 +20°C° 0,1 mm 2 m/s 745 mmHg 87%

    Amanhã, 17 Julho, Terça-feira

    Tempo Temperatura Precipitação Vento Pressão Humidade
    00:00 +20°C° 0 mm 2 m/s 745 mmHg 88%
    01:00 +19°C° 0 mm 2 m/s 745 mmHg 90%
    02:00 +19°C° 0 mm 2 m/s 745 mmHg 91%
    03:00 +19°C° 0 mm 2 m/s 745 mmHg 91%
    04:00 +19°C° 0 mm 3 m/s 745 mmHg 90%
    05:00 +19°C° 0 mm 3 m/s 745 mmHg 90%
    06:00 +20°C° 0 mm 3 m/s 745 mmHg 84%
    07:00 +22°C° 0 mm 4 m/s 745 mmHg 77%
    08:00 +23°C° 0 mm 4 m/s 745 mmHg 71%
    09:00 +26°C° 0 mm 4 m/s 744 mmHg 66%
    10:00 +27°C° 0 mm 5 m/s 744 mmHg 61%
    11:00 +28°C° 0 mm 5 m/s 744 mmHg 56%
    12:00 +29°C° 0 mm 5 m/s 744 mmHg 53%
    13:00 +30°C° 0 mm 5 m/s 744 mmHg 51%
    14:00 +30°C° 0 mm 5 m/s 743 mmHg 48%
    15:00 +30°C° 0 mm 5 m/s 743 mmHg 49%
    16:00 +30°C° 0 mm 5 m/s 743 mmHg 50%
    17:00 +29°C° 0 mm 4 m/s 743 mmHg 51%
    18:00 +28°C° 0 mm 4 m/s 743 mmHg 57%
    19:00 +26°C° 0 mm 4 m/s 743 mmHg 62%
    20:00 +24°C° 0 mm 3 m/s 743 mmHg 68%
    21:00 +22°C° 0 mm 3 m/s 743 mmHg 69%
    22:00 +21°C° 0 mm 3 m/s 743 mmHg 69%
    23:00 +21°C° 0 mm 3 m/s 744 mmHg 70%

    Depois de amanhã, 18 Julho, Quarta-feira

    Tempo Temperatura Precipitação Vento Pressão Humidade
    00:00 +20°C° 0 mm 3 m/s 744 mmHg 72%
    01:00 +19°C° 0 mm 3 m/s 744 mmHg 74%
    02:00 +19°C° 0 mm 3 m/s 744 mmHg 75%
    03:00 +19°C° 0 mm 3 m/s 743 mmHg 77%
    04:00 +18°C° 0 mm 3 m/s 743 mmHg 78%
    05:00 +18°C° 0 mm 3 m/s 743 mmHg 80%
    06:00 +20°C° 0 mm 3 m/s 743 mmHg 75%
    07:00 +21°C° 0 mm 4 m/s 743 mmHg 70%
    08:00 +23°C° 0 mm 4 m/s 743 mmHg 66%
    09:00 +25°C° 0 mm 4 m/s 743 mmHg 63%
    10:00 +25°C° 0 mm 5 m/s 743 mmHg 61%
    11:00 +26°C° 0 mm 5 m/s 743 mmHg 59%
    12:00 +26°C° 0,7 mm 5 m/s 743 mmHg 64%
    13:00 +26°C° 0,7 mm 4 m/s 742 mmHg 70%
    14:00 +25°C° 0,7 mm 4 m/s 742 mmHg 76%
    15:00 +25°C° 0,6 mm 4 m/s 742 mmHg 76%
    16:00 +25°C° 0,6 mm 4 m/s 742 mmHg 76%
    17:00 +23°C° 0,6 mm 4 m/s 742 mmHg 76%
    18:00 +22°C° 0 mm 3 m/s 742 mmHg 77%
    19:00 +21°C° 0 mm 3 m/s 742 mmHg 78%
    20:00 +20°C° 0 mm 3 m/s 742 mmHg 80%
    21:00 +20°C° 0 mm 3 m/s 742 mmHg 83%
    22:00 +19°C° 0 mm 3 m/s 742 mmHg 86%
    23:00 +18°C° 0 mm 3 m/s 742 mmHg 89%

    19 Julho, Quinta-feira

    Tempo Temperatura Precipitação Vento Pressão Humidade
    00:00 +18°C° 0,1 mm 3 m/s 742 mmHg 91%
    01:00 +18°C° 0,1 mm 3 m/s 742 mmHg 92%
    02:00 +18°C° 0,1 mm 3 m/s 742 mmHg 93%
    03:00 +18°C° 0,1 mm 3 m/s 742 mmHg 94%
    04:00 +18°C° 0,1 mm 3 m/s 742 mmHg 94%
    05:00 +18°C° 0,1 mm 3 m/s 742 mmHg 94%
    06:00 +18°C° 0,1 mm 3 m/s 742 mmHg 94%
    07:00 +19°C° 0,1 mm 3 m/s 742 mmHg 94%
    08:00 +19°C° 0,1 mm 3 m/s 742 mmHg 93%
    09:00 +20°C° 0,1 mm 3 m/s 742 mmHg 90%
    10:00 +21°C° 0,1 mm 3 m/s 742 mmHg 86%
    11:00 +22°C° 0,1 mm 4 m/s 742 mmHg 83%
    12:00 +23°C° 0,2 mm 4 m/s 742 mmHg 77%
    13:00 +25°C° 0,2 mm 4 m/s 742 mmHg 72%
    14:00 +26°C° 0,2 mm 4 m/s 742 mmHg 66%
    15:00 +26°C° 0,2 mm 4 m/s 742 mmHg 66%
    16:00 +26°C° 0,2 mm 4 m/s 742 mmHg 66%
    17:00 +26°C° 0,2 mm 3 m/s 742 mmHg 67%
    18:00 +25°C° 0,1 mm 3 m/s 742 mmHg 73%
    19:00 +23°C° 0,1 mm 2 m/s 741 mmHg 80%
    20:00 +21°C° 0,1 mm 2 m/s 741 mmHg 87%
    21:00 +20°C° 0 mm 2 m/s 741 mmHg 90%
    22:00 +19°C° 0 mm 2 m/s 741 mmHg 93%
    23:00 +18°C° 0 mm 2 m/s 741 mmHg 97%

    20 Julho, Sexta-feira

    Tempo Temperatura Precipitação Vento Pressão Humidade
    00:00 +18°C° 0 mm 2 m/s 741 mmHg 97%
    01:00 +18°C° 0 mm 2 m/s 741 mmHg 97%
    02:00 +18°C° 0 mm 2 m/s 741 mmHg 98%
    03:00 +18°C° 0,1 mm 2 m/s 741 mmHg 98%
    04:00 +18°C° 0,1 mm 2 m/s 740 mmHg 98%
    05:00 +18°C° 0,1 mm 3 m/s 740 mmHg 98%
    06:00 +19°C° 0,4 mm 3 m/s 740 mmHg 97%
    07:00 +19°C° 0,4 mm 3 m/s 740 mmHg 96%
    08:00 +20°C° 0,4 mm 3 m/s 740 mmHg 95%
    09:00 +20°C° 0,2 mm 3 m/s 740 mmHg 94%
    10:00 +21°C° 0,2 mm 3 m/s 740 mmHg 92%
    11:00 +21°C° 0,2 mm 3 m/s 740 mmHg 91%
    12:00 +24°C° 0,7 mm 3 m/s 740 mmHg 87%
    13:00 +25°C° 0,7 mm 3 m/s 739 mmHg 82%
    14:00 +26°C° 0,7 mm 3 m/s 739 mmHg 78%
    15:00 +25°C° 1,2 mm 3 m/s 739 mmHg 81%
    16:00 +25°C° 1,2 mm 2 m/s 739 mmHg 83%
    17:00 +25°C° 1,2 mm 2 m/s 739 mmHg 85%
    18:00 +24°C° 0,3 mm 2 m/s 739 mmHg 88%
    19:00 +23°C° 0,3 mm 2 m/s 739 mmHg 91%
    20:00 +21°C° 0,3 mm 2 m/s 739 mmHg 94%
    21:00 +21°C° 0,1 mm 1 m/s 739 mmHg 95%
    22:00 +21°C° 0,1 mm 1 m/s 738 mmHg 96%
    23:00 +20°C° 0,1 mm 1 m/s 738 mmHg 97%

    21 Julho, Sábado

    Tempo Temperatura Precipitação Vento Pressão Humidade
    00:00 +20°C° 0 mm 1 m/s 738 mmHg 98%
    01:00 +19°C° 0 mm 1 m/s 738 mmHg 98%
    02:00 +19°C° 0 mm 1 m/s 738 mmHg 98%
    03:00 +19°C° 0 mm 1 m/s 738 mmHg 98%
    04:00 +19°C° 0 mm 1 m/s 738 mmHg 98%
    05:00 +19°C° 0 mm 1 m/s 738 mmHg 99%
    06:00 +20°C° 0 mm 1 m/s 738 mmHg 97%
    07:00 +21°C° 0 mm 1 m/s 738 mmHg 95%
    08:00 +22°C° 0 mm 1 m/s 738 mmHg 93%
    09:00 +22°C° 0 mm 1 m/s 738 mmHg 91%
    10:00 +23°C° 0 mm 1 m/s 739 mmHg 88%
    11:00 +23°C° 0 mm 1 m/s 739 mmHg 86%
    12:00 +24°C° 0 mm 1 m/s 739 mmHg 83%
    13:00 +24°C° 0 mm 1 m/s 739 mmHg 80%
    14:00 +25°C° 0 mm 1 m/s 739 mmHg 77%
    15:00 +25°C° 0 mm 2 m/s 739 mmHg 77%
    16:00 +25°C° 0 mm 2 m/s 739 mmHg 78%
    17:00 +25°C° 0 mm 2 m/s 739 mmHg 78%
    18:00 +24°C° 0,1 mm 1 m/s 739 mmHg 83%
    19:00 +23°C° 0,1 mm 1 m/s 739 mmHg 87%
    20:00 +22°C° 0,1 mm 1 m/s 739 mmHg 92%
    21:00 +21°C° 0 mm 1 m/s 739 mmHg 94%
    22:00 +21°C° 0 mm 1 m/s 740 mmHg 95%
    23:00 +20°C° 0 mm 1 m/s 740 mmHg 97%
    Mostrar mais